Weather History for Alexander City, AL

Change the Weather History Date:

Thursday, June 27, 2013

  Actual Average (KAUO) Record (KAUO)
Temperature  
Mean Temperature 84 °F -  
Max Temperature 93 °F - 96 °F (1971)
Min Temperature 75 °F - 57 °F (1981)
Cooling Degree Days 19    
Month to date cooling degree days  
Year to date cooling degree days  
Since 1 June cooling degree days  
Growing Degree Days 34 (Base 50)    
Moisture  
Dew Point 75 °F    
Average Humidity 77    
Maximum Humidity 89    
Minimum Humidity 59    
Precipitation  
Precipitation 0.30 in - 2.56 in (1999)
Month to date precipitation  
Year to date precipitation  
Sea Level Pressure  
Sea Level Pressure 29.96 in    
Wind  
Wind Speed 5 mph (WSW)    
Max Wind Speed 14 mph    
Max Gust Speed 25 mph    
Visibility 10 miles    
Events Rain , Thunderstorm    
T = Trace of Precipitation, MM = Missing Value Source: NWS Daily Summary

Daily Weather History Graph

Daily Weather History Graph

Search for Another Location

Airport:

Trip Planner

Search our weather history database for the weather conditions in past years. The results will help you decide how hot, cold, wet, or windy it might be!

Date:

Astronomy

Jun. 27, 2013 Rise Set
Actual Time 5:37 AM CDT 7:56 PM CDT
Civil Twilight 5:09 AM CDT 8:24 PM CDT
Nautical Twilight 4:33 AM CDT 8:59 PM CDT
Astronomical Twilight 3:55 AM CDT 9:38 PM CDT
Moon 11:11 PM CDT (6/27) 10:21 AM CDT (6/27)
Length of Visible Light 15h 15m
Length of Day
14h 18m
Waning Gibbous, 76% of the Moon is Illuminated
Jun 27
Waning Gibbous
Jun 29
Last Quarter
Jul 8
New
Jul 15
First Quarter
Jul 22
Full

Hourly Weather History & Observations

Time (CDT) Temp. Heat Index Dew Point Humidity Pressure Visibility Wind Dir Wind Speed Gust Speed Precip Events Conditions
12:15 AM 78.4 °F - 72.5 °F 82% 30.01 in 10.0 mi SW 3.5 mph - N/A   Clear
12:35 AM 80.6 °F 85.9 °F 74.5 °F 82% 30.01 in 10.0 mi SW 4.6 mph - N/A   Clear
12:55 AM 78.6 °F - 72.9 °F 82% 30.01 in 10.0 mi SSW 3.5 mph - N/A   Clear
1:15 AM 78.1 °F - 73.4 °F 85% 30.01 in 10.0 mi WSW 3.5 mph - N/A   Clear
1:35 AM 78.1 °F - 73.4 °F 85% 30.02 in 10.0 mi SW 3.5 mph - N/A   Clear
1:55 AM 78.1 °F - 73.4 °F 85% 30.01 in 10.0 mi SW 4.6 mph - N/A   Clear
2:15 AM 78.1 °F - 73.9 °F 87% 30.00 in 10.0 mi SSW 4.6 mph - N/A   Clear
2:35 AM 78.1 °F - 73.9 °F 87% 30.01 in 10.0 mi WSW 4.6 mph - N/A   Clear
2:55 AM 78.1 °F - 73.9 °F 87% 30.02 in 10.0 mi WSW 3.5 mph - N/A   Clear
3:15 AM 78.1 °F - 73.9 °F 87% 30.02 in 10.0 mi Calm Calm - N/A   Scattered Clouds
3:35 AM 78.1 °F - 74.3 °F 88% 30.01 in 10.0 mi SW 3.5 mph - N/A   Scattered Clouds
3:55 AM 78.1 °F - 74.3 °F 88% 30.00 in 10.0 mi SW 5.8 mph - N/A   Mostly Cloudy
4:15 AM 78.1 °F - 74.7 °F 89% 30.01 in 7.0 mi SW 4.6 mph - N/A   Overcast
4:35 AM 78.1 °F - 74.3 °F 88% 30.01 in 10.0 mi WSW 3.5 mph - N/A   Overcast
4:55 AM 78.1 °F - 74.3 °F 88% 30.01 in 10.0 mi WSW 6.9 mph - N/A   Overcast
5:15 AM 78.1 °F - 73.9 °F 87% 30.01 in 10.0 mi West 4.6 mph - N/A   Overcast
5:35 AM 78.1 °F - 73.9 °F 87% 30.01 in 10.0 mi West 5.8 mph - N/A   Overcast
5:55 AM 78.1 °F - 74.1 °F 88% 30.00 in 10.0 mi West 6.9 mph - N/A   Overcast
6:15 AM 78.3 °F - 74.3 °F 88% 30.00 in 10.0 mi West 8.1 mph - N/A Thunderstorm Overcast
6:35 AM 80.2 °F 85.8 °F 75.9 °F 87% 30.00 in 10.0 mi West 5.8 mph - N/A Thunderstorm Mostly Cloudy
6:55 AM 80.6 °F 86.4 °F 75.7 °F 85% 29.99 in 10.0 mi West 6.9 mph - N/A Thunderstorm Scattered Clouds
7:15 AM 80.6 °F 86.4 °F 75.6 °F 85% 30.00 in 10.0 mi West 6.9 mph - N/A   Scattered Clouds
7:35 AM 80.6 °F 86.2 °F 75.4 °F 84% 29.99 in 10.0 mi WSW 8.1 mph - N/A   Scattered Clouds
7:55 AM 80.6 °F 86.4 °F 75.6 °F 85% 29.98 in 10.0 mi SW 5.8 mph - N/A Rain Light Rain
8:15 AM 80.6 °F 86.6 °F 76.1 °F 86% 29.99 in 10.0 mi West 6.9 mph - N/A Rain Light Rain
8:35 AM 80.6 °F 86.2 °F 75.4 °F 84% 30.01 in 10.0 mi NW 4.6 mph - N/A Rain Light Rain
8:55 AM 80.6 °F 85.7 °F 74.3 °F 81% 30.01 in 10.0 mi Calm Calm - N/A   Clear
9:15 AM 80.6 °F 85.7 °F 74.3 °F 81% 30.01 in 10.0 mi WNW 3.5 mph - N/A   Clear
9:35 AM 80.6 °F 86.0 °F 74.8 °F 83% 30.01 in 10.0 mi West 5.8 mph - N/A   Clear
9:55 AM 81.5 °F 87.6 °F 74.8 °F 80% 30.01 in 10.0 mi WSW 5.8 mph - N/A   Clear
10:15 AM 82.2 °F 88.8 °F 74.8 °F 78% 30.00 in 10.0 mi West 6.9 mph - N/A   Clear
10:35 AM 86.5 °F 96.9 °F 76.3 °F 71% 30.00 in 10.0 mi West 13.8 mph 19.6 mph N/A   Clear
10:55 AM 90.7 °F 104.5 °F 77.5 °F 65% 29.99 in 10.0 mi West 13.8 mph 25.3 mph N/A   Clear
11:15 AM 85.6 °F 93.8 °F 74.5 °F 69% 29.99 in 10.0 mi West 8.1 mph 20.7 mph N/A   Clear
11:35 AM 85.6 °F 94.2 °F 74.7 °F 70% 29.98 in 10.0 mi WSW 8.1 mph 16.1 mph N/A   Clear
11:55 AM 88.2 °F 100.1 °F 77.0 °F 69% 29.98 in 10.0 mi WSW 8.1 mph - N/A   Clear
12:15 PM 90.7 °F 105.2 °F 78.1 °F 66% 29.98 in 10.0 mi WSW 6.9 mph - N/A   Scattered Clouds
12:35 PM 90.7 °F 105.2 °F 78.1 °F 66% 29.97 in 10.0 mi West 9.2 mph - N/A   Mostly Cloudy
12:55 PM 90.7 °F 105.2 °F 78.1 °F 66% 29.96 in 10.0 mi WSW 6.9 mph - N/A   Scattered Clouds
1:15 PM 90.7 °F 103.8 °F 76.8 °F 64% 29.96 in 10.0 mi WSW 8.1 mph - N/A   Scattered Clouds
1:35 PM 90.7 °F 103.8 °F 77.0 °F 64% 29.96 in 10.0 mi SW 9.2 mph 16.1 mph N/A   Scattered Clouds
1:55 PM 90.7 °F 103.8 °F 77.2 °F 64% 29.96 in 10.0 mi WSW 8.1 mph - N/A   Scattered Clouds
2:15 PM 90.7 °F 101.9 °F 75.6 °F 61% 29.95 in 10.0 mi SW 9.2 mph - N/A   Scattered Clouds
2:35 PM 90.7 °F 102.6 °F 76.3 °F 62% 29.94 in 10.0 mi SW 8.1 mph - N/A   Clear
2:55 PM 90.7 °F 102.6 °F 76.1 °F 62% 29.93 in 10.0 mi WSW 5.8 mph - N/A   Clear
3:15 PM 91.9 °F 104.5 °F 76.1 °F 60% 29.92 in 10.0 mi SW 9.2 mph - N/A   Scattered Clouds
3:35 PM 92.3 °F 105.5 °F 76.6 °F 60% 29.92 in 10.0 mi SW 9.2 mph - N/A   Scattered Clouds
3:55 PM 93.6 °F 108.2 °F 77.2 °F 59% 29.91 in 10.0 mi WSW 8.1 mph - N/A   Clear
4:15 PM 93.6 °F 108.9 °F 77.7 °F 60% 29.89 in 10.0 mi SW 9.2 mph - N/A Thunderstorm Scattered Clouds
4:35 PM 90.7 °F 102.6 °F 76.3 °F 62% 29.89 in 10.0 mi SW 9.2 mph - N/A   Scattered Clouds
4:55 PM 90.7 °F 103.8 °F 77.2 °F 64% 29.87 in 10.0 mi SW 9.2 mph - N/A Thunderstorm Thunderstorm
5:15 PM 90.7 °F 103.2 °F 76.5 °F 63% 29.87 in 10.0 mi SW 6.9 mph - N/A Thunderstorm Clear
5:35 PM 90.7 °F 104.5 °F 77.4 °F 65% 29.88 in 10.0 mi West 3.5 mph - N/A Thunderstorm Scattered Clouds
5:55 PM 90.7 °F 102.6 °F 76.1 °F 62% 29.87 in 10.0 mi SW 4.6 mph - N/A Thunderstorm Scattered Clouds
6:15 PM - - - N/A% 29.88 in 10.0 mi SW 5.8 mph - N/A Thunderstorm Clear
6:35 PM 90.7 °F 101.9 °F 75.7 °F 61% 29.89 in - North - - N/A Thunderstorm Clear
6:55 PM - - - N/A% 29.88 in - North - - N/A Thunderstorm Thunderstorm
7:15 PM - - - N/A% - - North - - N/A   Unknown
7:35 PM - - - N/A% - - North - - N/A   Unknown
7:55 PM 85.6 °F 93.8 °F 74.5 °F 69% 29.89 in 10.0 mi North - - N/A Thunderstorm Unknown
8:15 PM 83.8 °F 92.1 °F 75.6 °F 76% 29.90 in 10.0 mi Calm Calm - N/A   Clear
8:35 PM 83.3 °F 90.8 °F 75.0 °F 76% 29.89 in 10.0 mi ESE 3.5 mph - N/A   Clear
8:55 PM 81.9 °F 88.2 °F 74.7 °F 79% 29.90 in 10.0 mi Calm Calm - N/A Thunderstorm Thunderstorm
9:15 PM 81.9 °F 89.7 °F 76.8 °F 85% 29.93 in - Calm Calm - N/A Thunderstorm Thunderstorm
9:35 PM 81.7 °F 89.0 °F 76.5 °F 84% 29.91 in 10.0 mi SW 5.8 mph - N/A Thunderstorm Thunderstorm
9:55 PM - - - N/A% 29.92 in 10.0 mi NW 3.5 mph - 0.02 in Thunderstorm Thunderstorm
10:15 PM - - - N/A% 29.94 in 5.0 mi SW 9.2 mph - 0.13 in Rain Rain
10:35 PM - - - N/A% 29.93 in - Calm Calm - N/A Thunderstorm Thunderstorm
10:55 PM - - - N/A% 29.92 in 10.0 mi SW 4.6 mph - 0.14 in Thunderstorm Scattered Clouds
11:15 PM 75.7 °F - 71.6 °F 87% 29.93 in 10.0 mi Calm Calm - N/A Thunderstorm Clear
11:35 PM 75.6 °F - 71.6 °F 87% - 10.0 mi Calm Calm - 0.14 in Thunderstorm Clear
11:55 PM 75.6 °F - 71.8 °F 88% 29.91 in 10.0 mi WSW 3.5 mph - 0.14 in Thunderstorm Clear